Torna al catalogo

THOR ABLESTAR DEB

AttivoLEO
NORAD 1943·DEBRIS·🇺🇸 United States

Lanciato Jun 29, 1961 da Cape Canaveral Space Force Station

Loading…

Prossimi Passaggi (prossime 24 ore)

TLE

AggiornatoSource: Space-Track

Epoca: Sep 14, 2026, 02:25 UTC

1 01943U 61015HT  26257.10134994  .00000596  00000-0  26926-3 0  9991
2 01943  66.8558 303.2692 0059113 229.0371 130.5605 14.27905789356854

Traccia THOR ABLESTAR DEB in tempo reale con AllMySat

Download on the App Store